User: anonymous   Login
Location: Unspecified
(0.0000°N, 0.0000°E)
Time: 10:40:29
(UTC+01:00)
Language:

Timation 2 Rocket - Orbit

View from above orbital plane
View from above orbital plane
View from above satellite
View from above satellite

Ground track
Ground track

The orbit data is extracted from the following two-line orbital elements,

1 04159U 69082AB  14327.12120703  .00000068  00000-0  12349-3 0  7519
2 04159 069.9634 285.3949 0115077 177.4394 182.7314 13.72262437259520
Epoch (UTC): 23 November 2014 02:54:32
Eccentricity: 0.0115077
inclination: 69.9634°
perigee height: 906 km
apogee height: 1076 km
right ascension of ascending node: 285.3949°
argument of perigee: 177.4394°
revolutions per day: 13.72262437
mean anomaly at epoch: 182.7314°
orbit number at epoch: 25952

The dashed part of the orbit path shows where the satellite is in the earth's shadow,  

DLR